DAL1714 KLAX-KSEA

Flight info

Callsign DAL1714
Flight time 2h 19m
Altitude 34000
Route LADYJ4 CSTRO SHIMR LKV HAWKZ8
Aircraft B738/M-SDE2E3FGHIRWXY/LB1

Departure

Time 2026-05-06 07:47
Airport Los Angeles International Airport (KLAX)

Arrival

Time 2026-05-06 10:06
Airport Seattle–Tacoma International Airport (KSEA)
Time Latitude Longitude Altitude Speed Heading
2026-05-06 07:21 33.94708 -118.40783 94 ft 0 kts 163°
2026-05-06 07:38 33.94717 -118.40786 91 ft 4 kts 163°
2026-05-06 07:38 33.94739 -118.40795 93 ft 4 kts 168°
2026-05-06 07:38 33.94758 -118.40793 90 ft 4 kts 243°
2026-05-06 07:38 33.94764 -118.40764 90 ft 4 kts 262°
2026-05-06 07:39 33.94766 -118.40744 92 ft 0 kts 262°
2026-05-06 07:41 33.94766 -118.40745 92 ft 0 kts 262°
2026-05-06 07:41 33.94763 -118.40776 91 ft 8 kts 263°
2026-05-06 07:41 33.94757 -118.40844 91 ft 8 kts 279°
2026-05-06 07:42 33.94799 -118.40879 94 ft 8 kts 358°
2026-05-06 07:42 33.94837 -118.40844 94 ft 8 kts 77°
2026-05-06 07:42 33.94845 -118.40780 93 ft 8 kts 82°
2026-05-06 07:42 33.94853 -118.40702 93 ft 10 kts 82°
2026-05-06 07:43 33.94861 -118.40620 96 ft 11 kts 84°
2026-05-06 07:43 33.94871 -118.40523 93 ft 12 kts 83°
2026-05-06 07:43 33.94881 -118.40426 94 ft 12 kts 82°
2026-05-06 07:43 33.94891 -118.40331 94 ft 11 kts 83°
2026-05-06 07:44 33.94900 -118.40239 93 ft 11 kts 83°
2026-05-06 07:44 33.94909 -118.40150 93 ft 11 kts 83°
2026-05-06 07:44 33.94918 -118.40063 94 ft 10 kts 83°
2026-05-06 07:44 33.94927 -118.39979 92 ft 10 kts 81°
2026-05-06 07:45 33.94964 -118.39916 92 ft 10 kts 21°
2026-05-06 07:45 33.95019 -118.39920 93 ft 6 kts 347°
2026-05-06 07:45 33.95043 -118.39933 93 ft 1 kts 297°
2026-05-06 07:45 33.95041 -118.39945 92 ft 2 kts 265°
2026-05-06 07:46 33.95023 -118.40144 96 ft 55 kts 262°
2026-05-06 07:46 33.94947 -118.40870 97 ft 117 kts 263°
2026-05-06 07:46 33.94820 -118.42055 130 ft 163 kts 261°
2026-05-06 07:46 33.94677 -118.43453 688 ft 166 kts 261°
2026-05-06 07:47 33.94535 -118.44816 1352 ft 170 kts 263°
2026-05-06 07:47 33.94389 -118.46336 1671 ft 197 kts 263°
2026-05-06 07:47 33.94289 -118.48076 1904 ft 219 kts 267°
2026-05-06 07:47 33.94236 -118.49983 2207 ft 234 kts 268°
2026-05-06 07:48 33.94162 -118.51973 2718 ft 240 kts 264°
2026-05-06 07:48 33.93999 -118.54033 3171 ft 255 kts 264°
2026-05-06 07:48 33.93821 -118.56186 3864 ft 260 kts 264°
2026-05-06 07:48 33.93646 -118.58353 4667 ft 261 kts 264°
2026-05-06 07:49 33.93475 -118.60538 5437 ft 263 kts 267°
2026-05-06 07:49 33.93751 -118.62717 6067 ft 269 kts 296°
2026-05-06 07:49 33.94903 -118.64487 6766 ft 271 kts 322°
2026-05-06 07:49 33.96481 -118.65759 7432 ft 275 kts 330°
2026-05-06 07:50 33.98130 -118.66956 7908 ft 279 kts 333°
2026-05-06 07:50 33.99920 -118.67680 7941 ft 274 kts 359°
2026-05-06 07:50 34.01823 -118.67624 8004 ft 275 kts
2026-05-06 07:50 34.03738 -118.67480 7998 ft 275 kts
2026-05-06 07:51 34.05648 -118.67339 7996 ft 275 kts
2026-05-06 07:51 34.07553 -118.67006 8284 ft 278 kts 12°
2026-05-06 07:51 34.09446 -118.66567 9117 ft 274 kts 13°
2026-05-06 07:51 34.11311 -118.66130 9978 ft 272 kts 14°
2026-05-06 07:52 34.13193 -118.65696 10479 ft 282 kts 13°
2026-05-06 07:52 34.15201 -118.65243 10632 ft 304 kts 13°
2026-05-06 07:52 34.17358 -118.64768 10781 ft 325 kts 13°
2026-05-06 07:52 34.19614 -118.64277 10982 ft 341 kts 13°
2026-05-06 07:53 34.21980 -118.63767 11456 ft 348 kts 12°
2026-05-06 07:53 34.24405 -118.63485 12075 ft 353 kts
2026-05-06 07:53 34.26870 -118.63731 12738 ft 357 kts 352°
2026-05-06 07:53 34.29323 -118.64298 13410 ft 360 kts 351°
2026-05-06 07:54 34.31802 -118.64895 14056 ft 363 kts 351°
2026-05-06 07:54 34.34292 -118.65489 14666 ft 366 kts 351°
2026-05-06 07:54 34.36793 -118.66072 15312 ft 368 kts 351°
2026-05-06 07:54 34.39294 -118.66646 15939 ft 370 kts 351°
2026-05-06 07:55 34.41846 -118.67228 16524 ft 374 kts 351°
2026-05-06 07:55 34.44423 -118.67790 17133 ft 376 kts 353°
2026-05-06 07:55 34.47016 -118.68301 17733 ft 379 kts 353°
2026-05-06 07:55 34.49643 -118.68801 18323 ft 382 kts 353°
2026-05-06 07:56 34.52277 -118.69301 18839 ft 385 kts 354°
2026-05-06 07:56 34.54896 -118.69804 19347 ft 387 kts 354°
2026-05-06 07:56 34.57559 -118.70320 19891 ft 388 kts 354°
2026-05-06 07:56 34.60236 -118.70843 20419 ft 390 kts 354°
2026-05-06 07:57 34.62926 -118.71369 20898 ft 393 kts 354°
2026-05-06 07:57 34.65633 -118.71899 21383 ft 395 kts 354°
2026-05-06 07:57 34.68362 -118.72434 21874 ft 397 kts 354°
2026-05-06 07:57 34.71082 -118.73116 22336 ft 403 kts 347°
2026-05-06 07:58 34.73736 -118.74302 22810 ft 409 kts 339°
2026-05-06 07:58 34.76268 -118.75962 23244 ft 415 kts 335°
2026-05-06 07:58 34.78753 -118.77689 23677 ft 417 kts 335°
2026-05-06 07:58 34.81277 -118.79454 24052 ft 419 kts 335°
2026-05-06 07:59 34.83814 -118.81224 24433 ft 421 kts 335°
2026-05-06 07:59 34.86365 -118.82996 24793 ft 423 kts 335°
2026-05-06 07:59 34.88942 -118.84778 25145 ft 425 kts 335°
2026-05-06 07:59 34.91525 -118.86559 25487 ft 428 kts 336°
2026-05-06 08:00 34.94126 -118.88351 25842 ft 429 kts 336°
2026-05-06 08:00 34.96732 -118.90146 26187 ft 431 kts 336°
2026-05-06 08:00 34.99349 -118.91950 26512 ft 433 kts 336°
2026-05-06 08:00 35.01092 -118.93151 26699 ft 435 kts 336°
2026-05-06 08:01 35.03732 -118.94973 26990 ft 437 kts 336°
2026-05-06 08:01 35.06382 -118.96803 27294 ft 439 kts 336°
2026-05-06 08:01 35.09918 -118.99248 27734 ft 440 kts 336°
2026-05-06 08:01 35.12590 -119.01097 28022 ft 442 kts 336°
2026-05-06 08:02 35.14404 -119.02353 28213 ft 444 kts 336°
2026-05-06 08:02 35.17100 -119.04220 28486 ft 446 kts 336°
2026-05-06 08:02 35.19801 -119.06092 28758 ft 447 kts 336°
2026-05-06 08:02 35.22474 -119.07948 29120 ft 446 kts 336°
2026-05-06 08:03 35.25167 -119.09820 29552 ft 444 kts 336°
2026-05-06 08:03 35.27847 -119.11684 29999 ft 442 kts 336°
2026-05-06 08:03 35.30525 -119.13548 30345 ft 442 kts 336°
2026-05-06 08:03 35.33202 -119.15410 30644 ft 441 kts 336°
2026-05-06 08:04 35.35868 -119.17267 30966 ft 440 kts 336°
2026-05-06 08:04 35.38528 -119.19121 31288 ft 439 kts 336°
2026-05-06 08:04 35.41184 -119.20974 31628 ft 438 kts 336°
2026-05-06 08:04 35.43845 -119.22765 31942 ft 434 kts 340°
2026-05-06 08:05 35.46599 -119.24120 32206 ft 427 kts 349°
2026-05-06 08:05 35.49470 -119.25009 32498 ft 423 kts 352°
2026-05-06 08:05 35.52334 -119.25837 32828 ft 422 kts 352°
2026-05-06 08:05 35.55194 -119.26660 33142 ft 421 kts 352°
2026-05-06 08:06 35.58051 -119.27487 33409 ft 421 kts 352°
2026-05-06 08:06 35.60896 -119.28321 33699 ft 420 kts 352°
2026-05-06 08:06 35.63734 -119.29160 34015 ft 419 kts 352°
2026-05-06 08:06 35.66563 -119.30002 34281 ft 418 kts 352°
2026-05-06 08:07 35.69364 -119.30839 34493 ft 418 kts 351°
2026-05-06 08:07 35.72191 -119.31686 34689 ft 418 kts 351°
2026-05-06 08:07 35.75028 -119.32537 34902 ft 418 kts 351°
2026-05-06 08:07 35.77857 -119.33387 35134 ft 417 kts 351°
2026-05-06 08:08 35.80645 -119.34226 35343 ft 417 kts 351°
2026-05-06 08:08 35.83472 -119.35076 35534 ft 417 kts 351°
2026-05-06 08:08 35.86292 -119.35925 35698 ft 417 kts 351°
2026-05-06 08:08 35.89117 -119.36776 35879 ft 417 kts 351°
2026-05-06 08:09 35.91943 -119.37628 36081 ft 417 kts 351°
2026-05-06 08:09 35.94773 -119.38481 36108 ft 420 kts 351°
2026-05-06 08:09 36.00442 -119.40192 36124 ft 418 kts 351°
2026-05-06 08:10 36.06020 -119.41883 36118 ft 412 kts 351°
2026-05-06 08:10 36.11571 -119.43565 36125 ft 408 kts 351°
2026-05-06 08:11 36.17108 -119.45241 36147 ft 412 kts 351°
2026-05-06 08:11 36.22728 -119.46944 36146 ft 417 kts 351°
2026-05-06 08:12 36.28347 -119.48654 36139 ft 418 kts 351°
2026-05-06 08:12 36.34008 -119.50380 36138 ft 418 kts 351°
2026-05-06 08:13 36.39668 -119.52108 36118 ft 418 kts 351°
2026-05-06 08:13 36.45316 -119.53834 36127 ft 417 kts 351°
2026-05-06 08:14 36.50917 -119.55549 36127 ft 416 kts 351°
2026-05-06 08:14 36.56540 -119.57272 36126 ft 415 kts 351°
2026-05-06 08:15 36.62112 -119.58982 36127 ft 414 kts 351°
2026-05-06 08:15 36.67706 -119.60702 36135 ft 413 kts 351°
2026-05-06 08:16 36.73287 -119.62420 36141 ft 413 kts 351°
2026-05-06 08:16 36.78837 -119.64131 36135 ft 412 kts 351°
2026-05-06 08:17 36.84420 -119.65854 36138 ft 413 kts 351°
2026-05-06 08:17 36.89997 -119.67579 36135 ft 413 kts 351°
2026-05-06 08:18 36.95576 -119.69307 36134 ft 413 kts 351°
2026-05-06 08:18 37.01166 -119.71040 36123 ft 413 kts 351°
2026-05-06 08:19 37.06719 -119.72766 36129 ft 413 kts 351°
2026-05-06 08:19 37.12307 -119.74504 36112 ft 414 kts 350°
2026-05-06 08:20 37.17903 -119.76248 36113 ft 414 kts 350°
2026-05-06 08:20 37.23500 -119.77994 36128 ft 414 kts 350°
2026-05-06 08:21 37.29062 -119.79733 36117 ft 414 kts 350°
2026-05-06 08:21 37.34666 -119.81487 36131 ft 414 kts 350°
2026-05-06 08:22 37.40273 -119.83245 36123 ft 414 kts 350°
2026-05-06 08:22 37.45871 -119.85003 36133 ft 414 kts 350°
2026-05-06 08:23 37.51435 -119.86752 36133 ft 414 kts 350°
2026-05-06 08:23 37.57038 -119.88517 36129 ft 414 kts 350°
2026-05-06 08:24 37.62638 -119.90284 36135 ft 415 kts 350°
2026-05-06 08:24 37.68207 -119.92043 36123 ft 415 kts 350°
2026-05-06 08:25 37.73810 -119.93818 36132 ft 415 kts 350°
2026-05-06 08:25 37.79412 -119.95592 36149 ft 414 kts 350°
2026-05-06 08:26 37.85014 -119.97370 36137 ft 414 kts 350°
2026-05-06 08:26 37.90614 -119.99151 36125 ft 414 kts 350°
2026-05-06 08:27 37.96159 -120.00916 36130 ft 413 kts 350°
2026-05-06 08:27 38.01746 -120.02698 36128 ft 413 kts 350°
2026-05-06 08:28 38.07327 -120.04481 36129 ft 413 kts 350°
2026-05-06 08:28 38.12882 -120.06258 36131 ft 414 kts 350°
2026-05-06 08:29 38.18480 -120.08052 36135 ft 414 kts 350°
2026-05-06 08:29 38.24050 -120.09711 36117 ft 411 kts 356°
2026-05-06 08:30 38.29728 -120.10260 36122 ft 409 kts 359°
2026-05-06 08:30 38.35421 -120.10732 36112 ft 409 kts 359°
2026-05-06 08:31 38.41114 -120.11225 36113 ft 410 kts 359°
2026-05-06 08:31 38.46757 -120.11734 36104 ft 409 kts 359°
2026-05-06 08:32 38.52445 -120.12251 36093 ft 409 kts 359°
2026-05-06 08:32 38.58137 -120.12772 36096 ft 410 kts 359°
2026-05-06 08:33 38.63831 -120.13293 36101 ft 410 kts 359°
2026-05-06 08:33 38.69530 -120.13816 36105 ft 410 kts 359°
2026-05-06 08:34 38.78052 -120.14599 36110 ft 411 kts 359°
2026-05-06 08:35 38.83761 -120.15125 36083 ft 410 kts 359°
2026-05-06 08:35 38.89430 -120.15648 36092 ft 410 kts 359°
2026-05-06 08:36 38.95132 -120.16175 36088 ft 410 kts 359°
2026-05-06 08:36 39.00830 -120.16703 36106 ft 409 kts 359°
2026-05-06 08:37 39.06495 -120.17228 36119 ft 409 kts 359°
2026-05-06 08:37 39.12146 -120.17753 36137 ft 409 kts 359°
2026-05-06 08:38 39.17830 -120.18281 36156 ft 408 kts 359°
2026-05-06 08:38 39.23506 -120.18810 36188 ft 407 kts 359°
2026-05-06 08:39 39.29128 -120.19335 36180 ft 407 kts 359°
2026-05-06 08:39 39.34777 -120.19862 36182 ft 407 kts 359°
2026-05-06 08:39 39.37608 -120.20127 36030 ft 407 kts 359°
2026-05-06 08:40 39.40447 -120.20393 36032 ft 407 kts 359°
2026-05-06 08:40 39.46088 -120.20921 36037 ft 408 kts 359°
2026-05-06 08:41 39.51758 -120.21454 36028 ft 409 kts 359°
2026-05-06 08:41 39.57453 -120.21989 36036 ft 410 kts 359°
2026-05-06 08:42 39.63122 -120.22523 36041 ft 411 kts 359°
2026-05-06 08:42 39.68852 -120.23064 36023 ft 413 kts 359°
2026-05-06 08:43 39.74572 -120.23605 36036 ft 414 kts 359°
2026-05-06 08:43 39.80315 -120.24149 36035 ft 414 kts 359°
2026-05-06 08:44 39.86088 -120.24696 36044 ft 415 kts 359°
2026-05-06 08:44 39.91816 -120.25240 36032 ft 415 kts 358°
2026-05-06 08:45 39.97589 -120.25790 36018 ft 415 kts 358°
2026-05-06 08:45 40.03356 -120.26340 36022 ft 414 kts 358°
2026-05-06 08:46 40.09109 -120.26889 36001 ft 413 kts 358°
2026-05-06 08:46 40.14816 -120.27435 36021 ft 413 kts 358°
2026-05-06 08:47 40.20557 -120.27985 36023 ft 412 kts 358°
2026-05-06 08:47 40.26279 -120.28535 36055 ft 411 kts 358°
2026-05-06 08:48 40.31952 -120.29080 36067 ft 411 kts 358°
2026-05-06 08:48 40.37654 -120.29629 36067 ft 410 kts 358°
2026-05-06 08:49 40.43360 -120.30179 36070 ft 410 kts 358°
2026-05-06 08:49 40.49021 -120.30726 36056 ft 410 kts 358°
2026-05-06 08:50 40.54719 -120.31277 36044 ft 410 kts 358°
2026-05-06 08:50 40.59456 -120.31737 36033 ft 410 kts 358°
2026-05-06 08:51 40.65154 -120.32290 36013 ft 409 kts 358°
2026-05-06 08:51 40.70845 -120.32843 36011 ft 409 kts 358°
2026-05-06 08:52 40.76499 -120.33394 36014 ft 409 kts 358°
2026-05-06 08:52 40.82193 -120.33950 36013 ft 409 kts 358°
2026-05-06 08:53 40.87842 -120.34502 36009 ft 409 kts 358°
2026-05-06 08:53 40.93540 -120.35060 36008 ft 409 kts 358°
2026-05-06 08:54 40.99186 -120.35614 36002 ft 409 kts 358°
2026-05-06 08:54 41.04877 -120.36173 36016 ft 409 kts 358°
2026-05-06 08:55 41.10567 -120.36733 36027 ft 410 kts 358°
2026-05-06 08:55 41.16267 -120.37295 36020 ft 410 kts 358°
2026-05-06 08:56 41.21964 -120.37858 36035 ft 410 kts 357°
2026-05-06 08:56 41.27643 -120.38420 36065 ft 411 kts 357°
2026-05-06 08:57 41.33340 -120.38984 36083 ft 411 kts 357°
2026-05-06 08:57 41.39049 -120.39551 36094 ft 411 kts 357°
2026-05-06 08:58 41.44751 -120.40118 36133 ft 411 kts 357°
2026-05-06 08:58 41.50448 -120.40686 36019 ft 412 kts 357°
2026-05-06 08:59 41.56175 -120.41258 36002 ft 411 kts 357°
2026-05-06 08:59 41.61883 -120.41829 36014 ft 411 kts 357°
2026-05-06 09:00 41.67562 -120.42398 36022 ft 411 kts 357°
2026-05-06 09:00 41.73273 -120.42971 36019 ft 411 kts 357°
2026-05-06 09:01 41.78941 -120.43541 36037 ft 411 kts 357°
2026-05-06 09:01 41.84643 -120.44115 36058 ft 411 kts 357°
2026-05-06 09:02 41.90347 -120.44690 36082 ft 411 kts 357°
2026-05-06 09:02 41.96065 -120.45268 36103 ft 411 kts 357°
2026-05-06 09:03 42.01741 -120.45843 36135 ft 411 kts 357°
2026-05-06 09:03 42.07446 -120.46422 36154 ft 411 kts 357°
2026-05-06 09:04 42.13152 -120.47002 36146 ft 411 kts 356°
2026-05-06 09:04 42.18869 -120.47584 36079 ft 411 kts 356°
2026-05-06 09:05 42.24552 -120.48163 36060 ft 411 kts 356°
2026-05-06 09:05 42.30271 -120.48748 36058 ft 411 kts 356°
2026-05-06 09:06 42.35950 -120.49329 36067 ft 411 kts 356°
2026-05-06 09:06 42.41660 -120.49915 36066 ft 411 kts 356°
2026-05-06 09:07 42.47385 -120.50503 36069 ft 412 kts 356°
2026-05-06 09:07 42.50208 -120.51168 36051 ft 414 kts 343°
2026-05-06 09:07 42.52841 -120.52657 36089 ft 415 kts 338°
2026-05-06 09:08 42.58116 -120.55923 36082 ft 417 kts 338°
2026-05-06 09:08 42.63401 -120.59192 36067 ft 417 kts 338°
2026-05-06 09:09 42.68704 -120.62434 36048 ft 417 kts 338°
2026-05-06 09:09 42.73974 -120.65642 36071 ft 417 kts 338°
2026-05-06 09:10 42.79281 -120.68872 36062 ft 417 kts 338°
2026-05-06 09:10 42.84575 -120.72101 36063 ft 417 kts 338°
2026-05-06 09:11 42.89863 -120.75333 36058 ft 416 kts 338°
2026-05-06 09:11 42.95162 -120.78577 36064 ft 416 kts 338°
2026-05-06 09:12 43.00407 -120.81795 36067 ft 416 kts 338°
2026-05-06 09:12 43.05700 -120.85048 36060 ft 417 kts 338°
2026-05-06 09:13 43.10995 -120.88309 36058 ft 417 kts 338°
2026-05-06 09:13 43.16264 -120.91560 36063 ft 417 kts 338°
2026-05-06 09:14 43.21556 -120.94831 36061 ft 417 kts 338°
2026-05-06 09:14 43.26852 -120.98112 36068 ft 417 kts 337°
2026-05-06 09:15 43.32105 -121.01371 36073 ft 417 kts 338°
2026-05-06 09:15 43.37406 -121.04667 36063 ft 417 kts 338°
2026-05-06 09:16 43.42700 -121.07965 36052 ft 416 kts 337°
2026-05-06 09:16 43.47944 -121.11238 36049 ft 416 kts 337°
2026-05-06 09:17 43.53214 -121.14534 36042 ft 415 kts 337°
2026-05-06 09:17 43.58477 -121.17831 36048 ft 415 kts 337°
2026-05-06 09:18 43.63700 -121.21111 36044 ft 415 kts 337°
2026-05-06 09:18 43.68963 -121.24421 36060 ft 415 kts 337°
2026-05-06 09:19 43.74197 -121.27719 36014 ft 415 kts 337°
2026-05-06 09:19 43.79457 -121.31040 36042 ft 416 kts 336°
2026-05-06 09:20 43.84736 -121.34378 36049 ft 416 kts 336°
2026-05-06 09:20 43.89990 -121.37707 36051 ft 417 kts 336°
2026-05-06 09:21 43.95272 -121.41060 36053 ft 417 kts 336°
2026-05-06 09:21 44.00561 -121.44425 36076 ft 417 kts 336°
2026-05-06 09:22 44.05803 -121.47767 36074 ft 417 kts 336°
2026-05-06 09:22 44.11088 -121.51143 36055 ft 417 kts 336°
2026-05-06 09:23 44.16370 -121.54524 36053 ft 417 kts 336°
2026-05-06 09:23 44.21650 -121.57910 36042 ft 417 kts 336°
2026-05-06 09:24 44.26929 -121.61301 36039 ft 417 kts 336°
2026-05-06 09:24 44.32174 -121.64679 36033 ft 417 kts 336°
2026-05-06 09:25 44.37444 -121.68078 36041 ft 416 kts 336°
2026-05-06 09:25 44.42715 -121.71485 36036 ft 416 kts 336°
2026-05-06 09:26 44.47936 -121.74867 36033 ft 416 kts 335°
2026-05-06 09:26 44.53199 -121.78282 36045 ft 416 kts 335°
2026-05-06 09:27 44.58449 -121.81696 36053 ft 416 kts 335°
2026-05-06 09:27 44.63670 -121.85098 36063 ft 416 kts 335°
2026-05-06 09:28 44.68943 -121.88540 36065 ft 417 kts 335°
2026-05-06 09:28 44.74206 -121.91983 36081 ft 417 kts 335°
2026-05-06 09:29 44.79480 -121.95441 36091 ft 418 kts 335°
2026-05-06 09:29 44.84731 -121.98890 36080 ft 419 kts 335°
2026-05-06 09:30 44.90012 -122.02365 36076 ft 419 kts 335°
2026-05-06 09:30 44.95297 -122.05851 36099 ft 418 kts 335°
2026-05-06 09:31 45.00580 -122.09342 36104 ft 419 kts 335°
2026-05-06 09:31 45.05828 -122.12818 36099 ft 419 kts 334°
2026-05-06 09:32 45.11120 -122.16329 36102 ft 419 kts 334°
2026-05-06 09:32 45.16406 -122.19845 36122 ft 419 kts 334°
2026-05-06 09:33 45.21654 -122.23342 36106 ft 420 kts 334°
2026-05-06 09:33 45.26954 -122.26881 36107 ft 420 kts 334°
2026-05-06 09:34 45.32242 -122.30418 36113 ft 420 kts 334°
2026-05-06 09:34 45.37509 -122.33949 36111 ft 420 kts 334°
2026-05-06 09:35 45.42819 -122.37516 36118 ft 421 kts 334°
2026-05-06 09:35 45.48086 -122.41063 36123 ft 421 kts 334°
2026-05-06 09:36 45.53389 -122.44641 36123 ft 421 kts 334°
2026-05-06 09:36 45.58689 -122.48225 36109 ft 422 kts 333°
2026-05-06 09:37 45.64003 -122.51825 35856 ft 426 kts 333°
2026-05-06 09:37 45.66693 -122.53652 35348 ft 428 kts 333°
2026-05-06 09:37 45.69380 -122.55477 34722 ft 428 kts 334°
2026-05-06 09:37 45.72068 -122.57304 34086 ft 428 kts 334°
2026-05-06 09:38 45.74744 -122.59058 33590 ft 424 kts 339°
2026-05-06 09:38 45.77608 -122.60003 33128 ft 421 kts 350°
2026-05-06 09:38 45.80496 -122.60631 32653 ft 417 kts 349°
2026-05-06 09:38 45.83359 -122.61291 32211 ft 414 kts 349°
2026-05-06 09:39 45.86157 -122.61962 31765 ft 411 kts 349°
2026-05-06 09:39 45.88969 -122.62652 31332 ft 407 kts 348°
2026-05-06 09:39 45.91746 -122.63341 30898 ft 405 kts 348°
2026-05-06 09:39 45.94514 -122.64029 30462 ft 402 kts 349°
2026-05-06 09:40 45.97268 -122.64715 29996 ft 400 kts 349°
2026-05-06 09:40 46.00000 -122.65396 29515 ft 397 kts 348°
2026-05-06 09:40 46.04519 -122.66521 28735 ft 393 kts 348°
2026-05-06 09:41 46.07212 -122.67192 28288 ft 391 kts 348°
2026-05-06 09:41 46.09881 -122.67856 27864 ft 388 kts 349°
2026-05-06 09:41 46.12545 -122.68434 27411 ft 386 kts 351°
2026-05-06 09:41 46.15190 -122.68943 26901 ft 387 kts 351°
2026-05-06 09:42 46.17853 -122.69442 26467 ft 385 kts 351°
2026-05-06 09:42 46.20511 -122.69948 26028 ft 384 kts 351°
2026-05-06 09:42 46.23153 -122.70461 25590 ft 382 kts 351°
2026-05-06 09:42 46.25785 -122.70980 25157 ft 381 kts 351°
2026-05-06 09:43 46.28423 -122.71504 24716 ft 381 kts 351°
2026-05-06 09:43 46.31016 -122.72019 24286 ft 380 kts 351°
2026-05-06 09:43 46.33646 -122.72444 23821 ft 381 kts 355°
2026-05-06 09:43 46.36298 -122.72593 23315 ft 381 kts 357°
2026-05-06 09:44 46.38952 -122.72639 22845 ft 380 kts 358°
2026-05-06 09:44 46.41586 -122.72669 22394 ft 377 kts 358°
2026-05-06 09:44 46.44209 -122.72713 21967 ft 375 kts 357°
2026-05-06 09:44 46.46818 -122.72775 21544 ft 373 kts 357°
2026-05-06 09:45 46.49374 -122.72851 21141 ft 371 kts 356°
2026-05-06 09:45 46.51956 -122.72937 20723 ft 369 kts 356°
2026-05-06 09:45 46.54524 -122.73027 20317 ft 368 kts 356°
2026-05-06 09:45 46.57087 -122.73120 19873 ft 366 kts 356°
2026-05-06 09:46 46.59628 -122.73212 19471 ft 365 kts 356°
2026-05-06 09:46 46.62137 -122.73303 19060 ft 364 kts 356°
2026-05-06 09:46 46.64664 -122.73395 18643 ft 363 kts 356°
2026-05-06 09:46 46.67186 -122.73487 18179 ft 362 kts 356°
2026-05-06 09:47 46.69706 -122.73578 17738 ft 361 kts 356°
2026-05-06 09:47 46.72210 -122.73669 17296 ft 358 kts 356°
2026-05-06 09:47 46.74669 -122.73757 16866 ft 348 kts 356°
2026-05-06 09:47 46.77059 -122.73744 16515 ft 338 kts
2026-05-06 09:48 46.79258 -122.72779 16282 ft 336 kts 25°
2026-05-06 09:48 46.81186 -122.70833 15929 ft 338 kts 37°
2026-05-06 09:48 46.83001 -122.68641 15561 ft 338 kts 37°
2026-05-06 09:48 46.84819 -122.66428 15191 ft 338 kts 37°
2026-05-06 09:49 46.86640 -122.64298 14807 ft 338 kts 36°
2026-05-06 09:49 46.88496 -122.62197 14445 ft 338 kts 36°
2026-05-06 09:49 46.90340 -122.60112 14279 ft 331 kts 36°
2026-05-06 09:49 46.92128 -122.58080 14114 ft 318 kts 36°
2026-05-06 09:50 46.93881 -122.56214 13938 ft 307 kts 27°
2026-05-06 09:50 46.95885 -122.55159 13551 ft 306 kts 14°
2026-05-06 09:50 46.97938 -122.54324 13205 ft 307 kts 14°
2026-05-06 09:50 46.99997 -122.53467 12882 ft 307 kts 14°
2026-05-06 09:51 47.02043 -122.52593 12563 ft 307 kts 14°
2026-05-06 09:51 47.04090 -122.51705 12249 ft 307 kts 15°
2026-05-06 09:51 47.06136 -122.50811 11932 ft 307 kts 15°
2026-05-06 09:51 47.08183 -122.49941 11627 ft 306 kts 11°
2026-05-06 09:52 47.10250 -122.49451 11328 ft 302 kts
2026-05-06 09:52 47.12318 -122.49141 11027 ft 295 kts
2026-05-06 09:52 47.14348 -122.48826 10722 ft 292 kts
2026-05-06 09:52 47.16372 -122.48481 10430 ft 293 kts
2026-05-06 09:53 47.18398 -122.48120 10120 ft 293 kts
2026-05-06 09:53 47.20399 -122.47780 10033 ft 285 kts
2026-05-06 09:53 47.22330 -122.47486 10002 ft 273 kts
2026-05-06 09:53 47.24181 -122.47209 9988 ft 261 kts
2026-05-06 09:54 47.25943 -122.46944 9986 ft 248 kts
2026-05-06 09:54 47.27630 -122.46689 9996 ft 241 kts
2026-05-06 09:54 47.29297 -122.46437 10010 ft 243 kts
2026-05-06 09:54 47.30984 -122.46181 10010 ft 244 kts
2026-05-06 09:55 47.32645 -122.45927 10007 ft 242 kts
2026-05-06 09:55 47.34323 -122.45670 10007 ft 241 kts
2026-05-06 09:55 47.35996 -122.45476 10001 ft 239 kts 359°
2026-05-06 09:55 47.37661 -122.45472 9903 ft 238 kts 357°
2026-05-06 09:56 47.39309 -122.45492 9620 ft 236 kts 357°
2026-05-06 09:56 47.40958 -122.45510 9177 ft 238 kts 358°
2026-05-06 09:56 47.42586 -122.45523 8832 ft 235 kts 358°
2026-05-06 09:56 47.44208 -122.45529 8494 ft 233 kts 358°
2026-05-06 09:57 47.45826 -122.45532 8121 ft 232 kts 358°
2026-05-06 09:57 47.47439 -122.45534 7761 ft 231 kts 358°
2026-05-06 09:57 47.49032 -122.45535 7427 ft 226 kts 358°
2026-05-06 09:57 47.50592 -122.45535 7067 ft 220 kts 358°
2026-05-06 09:58 47.52108 -122.45571 6682 ft 216 kts 356°
2026-05-06 09:58 47.53608 -122.45552 6232 ft 215 kts 360°
2026-05-06 09:58 47.55103 -122.45483 5788 ft 213 kts
2026-05-06 09:58 47.56580 -122.45413 5332 ft 212 kts
2026-05-06 09:59 47.58055 -122.45348 4900 ft 211 kts
2026-05-06 09:59 47.59529 -122.45280 4380 ft 214 kts
2026-05-06 09:59 47.61016 -122.45207 3993 ft 212 kts
2026-05-06 09:59 47.62467 -122.45122 3742 ft 208 kts
2026-05-06 10:00 47.63782 -122.44316 3450 ft 205 kts 44°
2026-05-06 10:00 47.64481 -122.42540 3263 ft 201 kts 80°
2026-05-06 10:00 47.64700 -122.40482 3255 ft 203 kts 85°
2026-05-06 10:00 47.64886 -122.38405 3202 ft 202 kts 85°
2026-05-06 10:01 47.65063 -122.36348 3202 ft 200 kts 89°
2026-05-06 10:01 47.64769 -122.34389 3203 ft 195 kts 121°
2026-05-06 10:01 47.64025 -122.32719 3203 ft 197 kts 129°
2026-05-06 10:01 47.62951 -122.31579 3198 ft 190 kts 170°
2026-05-06 10:02 47.61651 -122.31666 3219 ft 187 kts 185°
2026-05-06 10:02 47.60347 -122.31699 3176 ft 190 kts 179°
2026-05-06 10:02 47.59020 -122.31682 2950 ft 188 kts 180°
2026-05-06 10:02 47.57733 -122.31686 2719 ft 184 kts 180°
2026-05-06 10:03 47.56466 -122.31696 2474 ft 183 kts 181°
2026-05-06 10:03 47.55219 -122.31708 2220 ft 174 kts 181°
2026-05-06 10:03 47.54068 -122.31718 2006 ft 157 kts 180°
2026-05-06 10:03 47.53008 -122.31727 1778 ft 150 kts 181°
2026-05-06 10:04 47.51970 -122.31737 1571 ft 148 kts 181°
2026-05-06 10:04 47.50929 -122.31746 1377 ft 150 kts 181°
2026-05-06 10:04 47.49883 -122.31755 1173 ft 150 kts 181°
2026-05-06 10:04 47.48843 -122.31763 989 ft 152 kts 180°
2026-05-06 10:05 47.47766 -122.31746 745 ft 157 kts 180°
2026-05-06 10:05 47.46659 -122.31778 484 ft 159 kts 182°
2026-05-06 10:05 47.45595 -122.31799 393 ft 143 kts 180°
2026-05-06 10:05 47.44780 -122.31796 393 ft 69 kts 181°
2026-05-06 10:06 47.44495 -122.31805 393 ft 16 kts 177°
2026-05-06 10:06 47.44385 -122.31780 393 ft 16 kts 165°
2026-05-06 10:06 47.44285 -122.31731 393 ft 15 kts 152°
2026-05-06 10:06 47.44196 -122.31659 393 ft 14 kts 150°
2026-05-06 10:07 47.44148 -122.31619 393 ft 6 kts 150°
2026-05-06 10:07 47.44111 -122.31587 393 ft 6 kts 150°
2026-05-06 10:07 47.44075 -122.31556 393 ft 6 kts 150°
2026-05-06 10:07 47.44039 -122.31525 393 ft 6 kts 148°
2026-05-06 10:08 47.44004 -122.31494 393 ft 6 kts 149°
2026-05-06 10:08 47.43968 -122.31465 393 ft 6 kts 152°
2026-05-06 10:08 47.43934 -122.31438 393 ft 6 kts 152°
2026-05-06 10:08 47.43899 -122.31410 393 ft 6 kts 151°
2026-05-06 10:09 47.43866 -122.31383 393 ft 5 kts 151°
2026-05-06 10:09 47.43836 -122.31348 393 ft 5 kts 135°
2026-05-06 10:09 47.43816 -122.31302 393 ft 5 kts 112°
2026-05-06 10:09 47.43810 -122.31249 393 ft 5 kts 92°
2026-05-06 10:10 47.43809 -122.31195 393 ft 5 kts 90°
2026-05-06 10:10 47.43809 -122.31134 393 ft 8 kts 91°
2026-05-06 10:10 47.43807 -122.31012 393 ft 16 kts 91°
2026-05-06 10:10 47.43807 -122.30848 393 ft 16 kts 89°
2026-05-06 10:11 47.43807 -122.30711 393 ft 10 kts 90°
2026-05-06 10:11 47.43767 -122.30639 393 ft 10 kts 167°
2026-05-06 10:11 47.43710 -122.30596 393 ft 10 kts 129°
2026-05-06 10:11 47.43707 -122.30501 393 ft 9 kts 75°
2026-05-06 10:12 47.43720 -122.30408 393 ft 9 kts 87°
2026-05-06 10:12 47.43725 -122.30316 393 ft 9 kts 79°
2026-05-06 10:12 47.43738 -122.30228 393 ft 9 kts 77°
2026-05-06 10:12 47.43752 -122.30143 393 ft 8 kts 76°
2026-05-06 10:13 47.43765 -122.30060 393 ft 8 kts 77°
2026-05-06 10:13 47.43795 -122.29995 393 ft 8 kts 27°
2026-05-06 10:13 47.43846 -122.29970 393 ft 8 kts 14°
2026-05-06 10:13 47.43879 -122.29958 393 ft 0 kts 13°
2026-05-06 10:16 47.43897 -122.29948 498 ft 1 kts